SL-8 DEB

Satellite information

Favourite Embed

Satellite Type and Status

DEBRISIN ORBIT

Key statistics

Satellite SL-8 DEB at a glance.

Uptime

12788

Days in orbit

Revolutions

≈ 14.5

Per day

Orbit

LEO

Low Earth Orbit

Inclination

74.0

Latest

Satellite identification and parameters

Extended collection of information and parameters for SL-8 DEB.

Object identification

Identified? True

Debris? True

Object name: SL-8 DEB

International designator: 1990-111C

Object number (NORAD): 21255

Object ID (CCSDS): 21255

Country: COMMONWEALTH OF INDEPENDENT STATES (CIS)

Current information (Y/N): Y

RCS size: SMALL

Orbital parameters

Period: 99.204 minutes

Inclination: 74.0371 deg

SMA: 7098.709 km

Apoapsis: 730.238 km

Periapsis: 710.911 km

RAAN: 26.7166 deg

Eccentricy: 0.00136131

Argument of periapsis: 227.5442 deg

Mean anomaly: 202.7026 deg

Mean motion: 14.51555608 rev/day

Mean motion (dot): 0.00002524 rev/day2

B* drag term: 0.0006367039 1/REarth

Two-line elements (TLE)

Creation date: Dec. 14, 2025, 3:07 a.m.

Reference frame: TEME

Reference center: EARTH

Epoch: Dec. 13, 2025, 12:18 p.m. UTC

TLE line 0: 0 SL-8 DEB

TLE line 1: 1 21255U 90111C 25347.51293005 .00002524 00000-0 63670-3 0 9991

TLE line 2: 2 21255 74.0371 26.7166 0013613 227.5442 202.7026 14.51555608838656

Live tracking on map

Real-time ground track for satellite SL-8 DEB.

In-orbit conjunctions

A list of the most updated potential collisions computed for object SL-8 DEB.

Target Orbit TCA Probability of collision Miss distance Type
CZ-6A DEB LEO 2025-04-16 08:06:49 0.002025721 18.0 (m) DEBRIS

Associated space launch

Military communications satellite

SL-8 DEB was lifted into orbit during the mission ‘Kosmos-3M | Strela-2M 48’, on board a Kosmos-3M space rocket.

The launch took place on Dec. 10, 1990, 7:54 a.m. from 133/3 (133L).

For more information about the launch, click the button.

Launch to space Kosmos-3M | Strela-2M 48
Kosmos-3M | Strela-2M 48

Agency: N/A

Status: Launch Successful

Launch date: Dec. 10, 1990, 7:54 a.m. UTC

Rocket: Kosmos-3M

Launch pad: 133/3 (133L)

Location: Plesetsk Cosmodrome, Russian Federation

...

Latest news about this satellite

There are no fresh news available about this satellite. Check back as we update our databases every day.


Newsletter sign-up

Weekly statistics, charts and insights to help you stay on top of the space industry.